Weather History for Clermont County, Batavia, OH

Change the Weather History Date:

Sunday, March 30, 2014

  Actual Average (KLUK) Record (KLUK)
Temperature  
Mean Temperature 42 °F -  
Max Temperature 53 °F 60 °F 83 °F (1977)
Min Temperature 32 °F 40 °F 20 °F (1964)
Degree Days  
Heating Degree Days 22    
Moisture  
Dew Point 28 °F    
Average Humidity 65    
Maximum Humidity 87    
Minimum Humidity 30    
Precipitation  
Precipitation 0.00 in - - ()
Sea Level Pressure  
Sea Level Pressure 30.15 in    
Wind  
Wind Speed 9 mph (NNW)    
Max Wind Speed 14 mph    
Max Gust Speed 22 mph    
Visibility 10 miles    
Events      
Averages and records for this station are not official NWS values.
T = Trace of Precipitation, MM = Missing Value Source: NWS Daily Summary

Daily Weather History Graph

Daily Weather History Graph

Search for Another Location

Airport:

Trip Planner

Search our weather history database for the weather conditions in past years. The results will help you decide how hot, cold, wet, or windy it might be!

Date:

Astronomy

Mar. 30, 2014 Rise Set
Actual Time 7:24 AM EDT 7:58 PM EDT
Civil Twilight 6:57 AM EDT 8:25 PM EDT
Nautical Twilight 6:26 AM EDT 8:57 PM EDT
Astronomical Twilight 5:53 AM EDT 9:29 PM EDT
Moon 7:09 AM EDT (3/30) 8:10 PM EDT (3/30)
Length of Visible Light 13h 27m
Length of Day
12h 34m
Waning Crescent, 0% of the Moon is Illuminated
Mar 30
Waning Crescent
Mar 30
New
Apr 7
First Quarter
Apr 15
Full
Apr 22
Last Quarter

Hourly Weather History & Observations

Time (EDT) Temp. Windchill Dew Point Humidity Pressure Visibility Wind Dir Wind Speed Gust Speed Precip Events Conditions
12:15 AM 37.4 °F 30.3 °F 32.0 °F 81% 30.10 in 10.0 mi NNW 10.4 mph 16.1 mph N/A   Overcast
12:35 AM 37.4 °F 30.3 °F 32.0 °F 81% 30.11 in 10.0 mi North 10.4 mph - N/A   Overcast
12:55 AM 37.4 °F 28.9 °F 32.0 °F 81% 30.11 in 10.0 mi North 13.8 mph 21.9 mph N/A   Overcast
1:15 AM 35.6 °F 27.5 °F 30.2 °F 81% 30.11 in 10.0 mi NNW 11.5 mph 19.6 mph N/A   Mostly Cloudy
1:34 AM 35.6 °F 27.5 °F 30.2 °F 81% 30.11 in 10.0 mi NNW 11.5 mph - N/A   Scattered Clouds
1:55 AM 35.6 °F 26.6 °F 30.2 °F 81% 30.11 in 10.0 mi NNW 13.8 mph 18.4 mph N/A   Scattered Clouds
2:15 AM 35.6 °F 27.1 °F 30.2 °F 81% 30.11 in 10.0 mi NNW 12.7 mph 17.3 mph N/A   Clear
2:34 AM 33.8 °F 25.3 °F 30.2 °F 87% 30.11 in 10.0 mi NNW 11.5 mph 16.1 mph N/A   Scattered Clouds
2:55 AM 33.8 °F 24.3 °F 30.2 °F 87% 30.11 in 10.0 mi NNW 13.8 mph 17.3 mph N/A   Mostly Cloudy
3:15 AM 33.8 °F 25.8 °F 30.2 °F 87% 30.11 in 10.0 mi NNW 10.4 mph - N/A   Overcast
3:34 AM 33.8 °F 24.8 °F 30.2 °F 87% 30.11 in 10.0 mi NNW 12.7 mph - N/A   Overcast
3:55 AM 33.8 °F 25.8 °F 28.4 °F 81% 30.12 in 10.0 mi NNW 10.4 mph 17.3 mph N/A   Overcast
4:15 AM 33.8 °F 26.4 °F 28.4 °F 81% 30.12 in 10.0 mi NNW 9.2 mph - N/A   Overcast
4:34 AM 32.0 °F 23.6 °F 28.4 °F 87% 30.11 in 10.0 mi NNW 10.4 mph - N/A   Overcast
4:55 AM 32.0 °F 23.0 °F 28.4 °F 87% 30.11 in 10.0 mi North 11.5 mph 18.4 mph N/A   Overcast
5:15 AM 32.0 °F 23.0 °F 28.4 °F 87% 30.12 in 10.0 mi NNW 11.5 mph 18.4 mph N/A   Overcast
5:34 AM 32.0 °F 24.2 °F 28.4 °F 87% 30.13 in 10.0 mi NNW 9.2 mph 16.1 mph N/A   Overcast
5:55 AM 32.0 °F 24.8 °F 28.4 °F 87% 30.13 in 10.0 mi NNW 8.1 mph - N/A   Overcast
6:15 AM 32.0 °F 25.6 °F 28.4 °F 87% 30.14 in 10.0 mi NNW 6.9 mph - N/A   Mostly Cloudy
6:34 AM 32.0 °F 24.8 °F 28.4 °F 87% 30.14 in 10.0 mi NNW 8.1 mph - N/A   Scattered Clouds
6:55 AM 32.0 °F 25.6 °F 28.4 °F 87% 30.16 in 10.0 mi NNW 6.9 mph - N/A   Scattered Clouds
7:15 AM 32.0 °F 25.6 °F 28.4 °F 87% 30.17 in 10.0 mi NNW 6.9 mph - N/A   Overcast
7:34 AM 32.0 °F 26.4 °F 28.4 °F 87% 30.18 in 10.0 mi North 5.8 mph - N/A   Overcast
7:55 AM 32.0 °F 26.4 °F 28.4 °F 87% 30.18 in 10.0 mi NNW 5.8 mph - N/A   Overcast
8:15 AM 32.0 °F 24.2 °F 28.4 °F 87% 30.19 in 10.0 mi NNW 9.2 mph - N/A   Overcast
8:34 AM 32.0 °F 26.4 °F 28.4 °F 87% 30.20 in 10.0 mi NNW 5.8 mph - N/A   Overcast
8:55 AM 32.0 °F 25.6 °F 28.4 °F 87% 30.20 in 10.0 mi North 6.9 mph - N/A   Overcast
9:15 AM 32.0 °F 24.8 °F 28.4 °F 87% 30.20 in 10.0 mi North 8.1 mph - N/A   Overcast
9:34 AM 32.0 °F 27.5 °F 28.4 °F 87% 30.20 in 10.0 mi NNE 4.6 mph - N/A   Overcast
9:55 AM 33.8 °F 28.6 °F 28.4 °F 81% 30.20 in 10.0 mi NNW 5.8 mph - N/A   Mostly Cloudy
10:15 AM 33.8 °F 29.6 °F 30.2 °F 87% 30.19 in 10.0 mi NE 4.6 mph - N/A   Mostly Cloudy
10:34 AM 33.8 °F 28.6 °F 30.2 °F 87% 30.20 in 10.0 mi NW 5.8 mph - N/A   Scattered Clouds
10:55 AM 35.6 °F 29.9 °F 30.2 °F 81% 30.19 in 10.0 mi North 6.9 mph - N/A   Clear
11:15 AM 37.4 °F 31.4 °F 30.2 °F 75% 30.19 in 10.0 mi NW 8.1 mph - N/A   Clear
11:35 AM 37.4 °F 32.8 °F 30.2 °F 75% 30.20 in 10.0 mi NW 5.8 mph - N/A   Clear
11:55 AM 39.2 °F 32.5 °F 30.2 °F 70% 30.21 in 10.0 mi North 10.4 mph - N/A   Clear
12:15 PM 41.0 °F 34.7 °F 32.0 °F 70% 30.20 in 10.0 mi NNW 10.4 mph - N/A   Clear
12:35 PM 42.8 °F 37.5 °F 30.2 °F 61% 30.20 in 10.0 mi NW 9.2 mph - N/A   Clear
12:55 PM 42.8 °F 37.5 °F 28.4 °F 57% 30.20 in 10.0 mi North 9.2 mph 18.4 mph N/A   Clear
1:15 PM 44.6 °F 40.7 °F 30.2 °F 57% 30.20 in 10.0 mi NNE 6.9 mph 16.1 mph N/A   Clear
1:35 PM 44.6 °F 39.2 °F 30.2 °F 57% 30.20 in 10.0 mi NW 10.4 mph 16.1 mph N/A   Clear
1:55 PM 46.4 °F 42.9 °F 30.2 °F 53% 30.19 in 10.0 mi WNW 6.9 mph - N/A   Clear
2:15 PM 46.4 °F 41.9 °F 30.2 °F 53% 30.18 in 10.0 mi NNW 9.2 mph - N/A   Clear
2:35 PM 48.2 °F - 28.4 °F 46% 30.18 in 10.0 mi NNW 8.1 mph - N/A   Clear
2:55 PM 50.0 °F - 28.4 °F 43% 30.17 in 10.0 mi NNW 9.2 mph - N/A   Clear
3:15 PM 50.0 °F - 28.4 °F 43% 30.16 in 10.0 mi WNW 8.1 mph - N/A   Clear
3:35 PM 50.0 °F - 26.6 °F 40% 30.15 in 10.0 mi NNW 11.5 mph - N/A   Clear
3:55 PM 51.8 °F - 26.6 °F 38% 30.15 in 10.0 mi North 5.8 mph - N/A   Clear
4:14 PM 51.8 °F - 26.6 °F 38% 30.15 in 10.0 mi North 5.8 mph - N/A   Clear
4:35 PM 51.8 °F - 26.6 °F 38% 30.14 in 10.0 mi NW 10.4 mph 16.1 mph N/A   Clear
4:55 PM 51.8 °F - 23.0 °F 33% 30.14 in 10.0 mi NW 8.1 mph - N/A   Clear
5:14 PM 53.6 °F - 23.0 °F 30% 30.14 in 10.0 mi North 5.8 mph 9.2 mph N/A   Clear
5:35 PM 53.6 °F - 24.8 °F 33% 30.13 in 10.0 mi North 4.6 mph - N/A   Clear
5:55 PM 53.6 °F - 23.0 °F 30% 30.12 in 10.0 mi North 4.6 mph - N/A   Clear
6:14 PM 53.6 °F - 24.8 °F 33% 30.13 in 10.0 mi Calm Calm - N/A   Clear
6:35 PM 53.6 °F - 24.8 °F 33% 30.13 in 10.0 mi NNW 8.1 mph - N/A   Clear
6:55 PM 53.6 °F - 23.0 °F 30% 30.13 in 10.0 mi NW 6.9 mph - N/A   Clear
7:14 PM 51.8 °F - 24.8 °F 35% 30.13 in 10.0 mi NW 3.5 mph - N/A   Clear
7:35 PM 51.8 °F - 24.8 °F 35% 30.14 in 10.0 mi NNW 3.5 mph - N/A   Clear
7:55 PM 51.8 °F - 26.6 °F 38% 30.15 in 10.0 mi Calm Calm - N/A   Clear
8:14 PM 51.8 °F - 26.6 °F 38% 30.15 in 10.0 mi NNW 3.5 mph - N/A   Clear
8:35 PM 50.0 °F - 26.6 °F 40% 30.15 in 10.0 mi Calm Calm - N/A   Clear
8:55 PM 50.0 °F - 26.6 °F 40% 30.15 in 10.0 mi Calm Calm - N/A   Clear
9:14 PM 46.4 °F - 28.4 °F 50% 30.16 in 10.0 mi Calm Calm - N/A   Clear
9:35 PM 46.4 °F - 28.4 °F 50% 30.16 in 10.0 mi Calm Calm - N/A   Clear
9:55 PM 44.6 °F - 28.4 °F 53% 30.16 in 10.0 mi Calm Calm - N/A   Clear
10:14 PM 42.8 °F - 28.4 °F 57% 30.16 in 10.0 mi Calm Calm - N/A   Clear
10:35 PM 42.8 °F - 28.4 °F 57% 30.16 in 10.0 mi Calm Calm - N/A   Clear
10:55 PM 42.8 °F - 30.2 °F 61% 30.16 in 10.0 mi Calm Calm - N/A   Clear
11:14 PM 41.0 °F - 30.2 °F 65% 30.16 in 10.0 mi Calm Calm - N/A   Clear
11:35 PM 41.0 °F - 30.2 °F 65% 30.16 in 10.0 mi Calm Calm - N/A   Clear
11:55 PM 39.2 °F - 28.4 °F 65% 30.17 in 10.0 mi Calm Calm - N/A   Clear